Wind_Speed
3 3 2 3 1 3 3 3 6 6 4 8 10 9 2 9 15 15 17 19 19 20 8 10 15 19 22 23 21 21 22 21 20 19 21 14 8 12 15 14 14 13 9 8
4 5 1 3 3 6 5 4 0 2 5 6 2 4 4 2 11 20 19 19 20 13 11 11 16 13 19 24 23 21 21 22 22 21 21 22 23 21 15 10 9 8 8 8
11 5 4 2 3 5 4 2 1 3 5 6 1 2 4 1 3 9 14 18 19 11 9 11 7 18 19 23 22 20 20 21 20 21 20 21 24 23 18 15 12 7 8 6
5 0 1 1 4 4 1 3 2 4 4 1 2 4 4 4 7 2 8 14 18 14 15 21 18 4 15 20 20 16 15 17 18 21 22 22 19 19 13 11 11 9 9 9
6 5 2 6 3 3 3 3 3 2 3 4 3 3 3 3 5 5 7 7 7 9 18 19 17 19 15 18 15 16 15 15 17 21 23 21 21 18 20 15 12 11 9 10
5 1 2 3 3 2 7 3 4 3 1 2 2 4 2 0 2 3 4 6 5 11 12 13 13 10 9 9 13 14 13 16 16 20 24 23 22 21 21 19 16 13 11 12
4 10 4 4 6 5 3 3 3 3 3 2 0 4 3 1 4 3 5 2 5 9 13 13 10 6 4 5 6 9 10 10 15 17 21 22 17 19 24 23 20 15 13 14
9 10 7 6 3 2 4 4 4 4 4 1 2 3 1 1 2 2 1 1 5 9 10 7 7 7 6 2 5 8 13 12 9 11 14 15 12 16 15 13 15 14 15 15
8 5 3 3 2 2 5 4 3 5 1 2 0 3 8 6 4 2 3 5 5 5 9 11 6 16 19 16 14 14 14 10 8 8 10 12 17 20 11 8 12 11 12 12
5 2 2 4 3 9 3 8 3 1 4 3 2 4 4 4 7 5 5 8 7 6 7 7 8 19 19 15 13 15 17 13 9 4 9 10 9 13 10 12 12 12 13 13
5 1 4 3 3 4 5 4 5 4 2 2 3 2 1 7 8 5 6 9 8 5 6 5 11 17 17 15 14 14 14 10 8 7 8 10 10 10 10 11 12 12 13 13
5 2 2 3 2 1 1 3 4 3 4 1 2 2 4 7 6 3 5 13 6 6 6 5 7 11 13 12 11 13 12 11 10 9 9 10 12 12 11 11 12 11 11 11
10 3 4 5 4 3 2 3 3 6 2 5 3 1 4 6 6 6 7 12 13 8 6 7 7 9 10 8 7 7 6 7 6 8 12 11 11 11 8 10 16 16 11 10
11 3 2 7 2 3 5 4 2 1 3 3 6 2 4 8 7 4 9 12 14 13 12 12 13 11 9 9 7 5 8 13 15 14 15 17 16 14 13 11 14 16 14 13
4 4 3 5 3 4 4 4 3 3 1 5 4 3 5 6 6 9 13 17 19 16 18 17 15 13 11 9 8 7 9 12 13 16 21 24 22 19 18 19 19 19 19 18
1 4 6 5 4 5 5 4 3 4 2 2 2 3 4 9 13 14 13 15 17 16 15 14 12 11 11 12 13 15 18 19 20 20 20 20 22 26 24 24 23 23 22 21
4 8 4 4 3 3 3 3 2 1 1 2 5 5 11 10 13 12 12 13 13 12 12 11 12 14 15 17 19 21 23 25 26 27 27 27 27 27 30 33 34 33 28 26
8 6 2 4 4 4 4 2 5 3 0 4 8 11 8 11 12 11 9 9 9 9 10 12 13 15 18 21 23 24 25 26 27 28 30 31 30 30 30 32 33 36 37 34
5 5 4 4 2 2 3 5 6 4 2 6 12 13 14 13 9 7 5 6 7 8 9 13 16 19 21 22 23 23 22 22 23 23 23 25 25 29 32 34 35 35 34 35
9 8 4 4 4 5 3 8 7 3 6 16 15 17 13 6 4 3 3 3 6 9 12 15 17 17 18 19 18 17 17 17 19 22 23 25 26 27 29 29 30 32 36 34
2 3 3 4 2 1 4 8 10 5 2 20 18 12 9 4 2 6 1 4 8 11 14 16 15 13 14 14 16 17 18 19 21 23 26 28 30 31 31 29 29 30 30 29
3 5 3 3 2 5 10 7 5 3 10 16 13 9 8 9 8 5 1 3 7 9 11 10 9 10 13 16 18 18 20 23 27 29 29 29 29 29 30 29 31 28 28 29
3 1 2 3 1 1 4 2 2 8 16 11 12 9 9 8 4 1 3 7 8 10 10 10 12 14 16 18 18 20 24 28 29 27 28 30 30 28 27 27 27 32 28 26
2 2 2 4 2 2 6 8 11 14 15 14 12 10 6 4 1 3 5 7 8 9 10 12 14 15 17 19 20 22 27 28 25 27 29 29 29 29 26 25 25 22 23 20
2 9 7 2 3 5 6 9 15 16 15 14 12 8 5 3 2 3 4 5 6 8 10 13 15 17 18 20 21 23 27 25 24 25 29 29 29 27 27 25 22 21 20 23
7 6 5 2 14 4 13 18 18 17 15 12 8 7 3 3 5 6 5 5 7 10 13 14 16 18 18 19 20 24 28 23 22 24 25 26 26 26 26 27 26 19 16 13
Wind_Direction
64 220 247 341 313 328 288 261 265 265 220 194 228 272 337 205 206 207 209 216 215 215 205 226 267 255 261 259 250 250 249 248 250 246 245 244 264 275 270 274 284 293 284 272
177 233 120 171 243 248 253 256 285 37 120 207 159 248 307 252 229 218 215 225 226 214 193 175 2 268 262 268 261 253 248 250 252 253 258 263 269 271 287 294 287 307 285 268
210 137 209 184 226 276 202 255 124 118 117 64 96 240 299 22 339 241 233 242 248 228 173 146 348 285 264 261 263 261 258 255 255 257 261 267 268 272 281 290 305 316 294 286
217 206 174 27 274 253 154 249 94 140 188 150 314 294 271 358 341 229 255 253 247 230 170 177 201 296 256 262 257 256 264 266 263 259 260 259 259 261 260 276 279 284 296 295
168 167 229 330 214 212 74 52 25 62 99 173 32 245 291 18 53 32 2 328 253 201 174 199 230 255 259 250 245 246 254 269 261 260 259 263 268 268 274 277 286 279 277 280
194 169 252 239 226 116 141 99 71 74 115 167 37 281 230 155 55 302 14 20 91 134 147 175 195 219 232 240 241 248 257 281 276 267 267 268 276 284 282 289 283 283 267 266
219 253 260 212 219 101 154 174 264 249 205 15 6 237 332 321 28 297 331 340 145 119 123 129 136 144 171 231 249 269 280 289 293 293 282 277 275 293 296 281 273 276 277 268
191 218 204 187 232 195 182 244 237 253 209 44 151 236 65 353 324 294 320 94 156 143 129 126 119 99 104 93 291 306 312 328 327 325 304 288 280 310 311 280 265 277 278 278
184 230 202 47 126 243 153 200 48 119 85 245 70 252 262 245 202 222 97 109 141 135 115 59 105 102 89 82 76 61 41 31 16 345 321 291 288 313 298 279 282 282 286 275
172 184 79 111 96 60 236 128 165 167 182 228 193 268 263 249 222 194 148 129 97 87 104 126 116 92 93 90 76 56 43 28 10 346 327 314 300 316 319 300 308 290 304 293
161 249 118 160 23 153 149 173 67 106 338 253 250 219 201 281 268 219 124 121 105 98 104 93 87 82 69 72 65 54 42 35 30 354 333 329 329 322 316 318 318 312 299 298
169 111 82 61 41 192 2 109 176 223 179 115 300 233 17 304 283 226 109 124 119 124 116 101 91 86 64 63 51 41 32 25 10 358 354 352 347 338 341 354 351 331 320 302
175 202 151 134 176 171 93 76 96 99 113 179 233 236 18 33 95 85 122 121 121 114 91 82 71 56 33 40 30 16 4 346 337 329 315 320 323 328 327 353 343 337 327 305
151 126 209 206 151 120 147 119 128 287 212 155 240 272 33 22 29 65 84 106 115 113 90 69 58 49 35 18 4 329 313 303 300 303 299 303 311 310 303 292 317 324 314 317
188 149 129 77 116 101 105 136 165 228 343 249 7 220 28 18 45 75 94 99 96 82 78 74 67 59 48 33 14 343 309 305 308 305 295 299 300 284 283 288 292 296 291 293
95 124 132 66 76 113 109 76 98 72 113 278 193 118 59 93 99 85 79 83 78 70 63 57 48 32 16 356 339 325 316 310 307 304 300 291 289 288 281 277 275 276 277 286
127 144 156 136 208 179 167 18 331 139 192 262 207 136 141 117 97 83 83 77 73 60 46 30 15 359 343 328 318 311 309 307 303 301 298 295 290 283 275 278 281 283 274 263
130 103 68 122 185 209 34 322 231 167 206 222 134 144 137 119 108 94 77 75 61 38 15 358 347 339 334 327 322 316 310 305 302 300 295 293 291 289 284 279 276 272 274 277
89 118 99 144 116 2 216 204 187 208 178 187 149 143 142 140 130 89 74 57 40 16 357 345 337 333 331 329 326 321 320 320 317 312 306 304 301 294 289 284 282 278 276 271
70 81 111 156 176 215 106 177 189 169 257 178 168 159 162 180 233 113 105 13 349 340 336 333 333 334 333 333 331 330 329 327 323 322 313 307 305 303 298 297 295 286 277 276
107 50 126 148 184 242 155 146 149 204 1 166 173 172 165 189 55 131 177 316 327 333 333 331 335 340 336 331 326 326 331 332 329 322 318 312 305 299 289 291 293 293 289 280
161 137 141 128 179 236 155 140 208 81 129 152 153 149 132 128 133 137 110 346 340 341 344 345 346 346 347 349 348 344 339 333 330 328 328 328 323 316 303 286 274 281 286 287
170 325 174 231 96 65 171 65 169 141 145 138 139 140 138 134 134 84 358 354 358 353 356 356 354 352 348 345 343 343 343 340 337 338 338 337 332 328 322 316 301 274 273 285
116 178 118 168 151 136 152 133 134 138 141 142 139 141 145 144 112 9 7 0 358 358 1 356 355 353 351 349 348 350 348 346 344 341 345 344 341 337 332 324 316 308 272 275
109 154 135 109 157 137 161 151 149 142 141 140 137 136 128 109 83 64 27 22 20 12 11 9 5 1 356 355 355 357 354 349 343 348 351 348 345 344 339 332 324 313 295 262
192 159 187 200 179 153 170 162 155 149 146 143 139 127 106 92 101 95 96 77 57 35 20 11 7 3 360 358 359 0 360 356 349 349 351 353 352 355 353 347 345 343 323 264
Height
1503 1505 1509 1507 1507 1508 1510 1513 1514 1505 1500 1504 1506 1505 1507 1509 1513 1515 1516 1516 1518 1520 1531 1532 1534 1535 1537 1539 1539 1540 1541 1541 1542 1543 1545 1546 1547 1549 1549 1550 1550 1552 1552 1553
1503 1507 1506 1507 1507 1509 1509 1509 1507 1504 1502 1504 1508 1506 1505 1506 1507 1509 1512 1514 1515 1523 1528 1530 1532 1533 1533 1535 1536 1536 1537 1537 1538 1540 1542 1543 1544 1546 1547 1547 1548 1548 1549 1549
1501 1503 1505 1504 1505 1506 1504 1503 1504 1505 1504 1506 1508 1510 1507 1505 1508 1509 1511 1513 1516 1525 1531 1534 1526 1526 1530 1530 1531 1533 1534 1534 1536 1537 1538 1540 1540 1541 1543 1545 1545 1545 1545 1545
1499 1501 1501 1503 1505 1502 1502 1498 1498 1502 1503 1517 1514 1521 1505 1505 1505 1506 1507 1509 1512 1520 1525 1525 1525 1524 1524 1527 1529 1530 1529 1530 1531 1533 1535 1535 1535 1536 1536 1538 1540 1540 1541 1541
1500 1500 1502 1503 1500 1497 1501 1500 1503 1504 1509 1512 1516 1517 1500 1506 1507 1507 1507 1506 1507 1514 1519 1519 1522 1520 1522 1524 1525 1527 1527 1527 1528 1528 1529 1532 1532 1534 1535 1534 1535 1536 1535 1536
1496 1499 1498 1497 1498 1495 1499 1501 1507 1510 1510 1522 1524 1520 1506 1507 1510 1507 1507 1507 1508 1511 1514 1516 1518 1519 1519 1521 1523 1524 1526 1526 1525 1525 1526 1529 1531 1532 1531 1532 1531 1532 1531 1532
1496 1494 1495 1496 1496 1496 1498 1502 1520 1526 1523 1527 1523 1523 1505 1504 1508 1508 1508 1507 1510 1512 1515 1517 1518 1519 1519 1519 1521 1522 1524 1524 1523 1523 1523 1525 1528 1529 1528 1527 1527 1528 1528 1528
1507 1512 1495 1491 1488 1493 1498 1498 1515 1542 1533 1525 1524 1520 1504 1505 1507 1508 1509 1511 1512 1513 1514 1516 1517 1515 1515 1516 1519 1521 1522 1522 1521 1521 1522 1523 1525 1525 1523 1521 1523 1522 1522 1523
1506 1504 1490 1488 1489 1492 1502 1505 1504 1518 1532 1527 1522 1513 1499 1501 1505 1507 1510 1513 1513 1515 1517 1515 1522 1514 1512 1516 1519 1520 1520 1521 1521 1521 1521 1522 1523 1522 1520 1520 1519 1519 1518 1519
1496 1500 1489 1492 1491 1495 1493 1500 1509 1512 1534 1537 1524 1523 1505 1503 1500 1505 1510 1513 1515 1516 1517 1521 1523 1516 1512 1515 1519 1518 1518 1520 1521 1521 1521 1521 1520 1519 1517 1517 1517 1515 1513 1514
1490 1493 1497 1492 1497 1495 1500 1499 1510 1510 1519 1521 1525 1512 1501 1502 1500 1503 1511 1515 1517 1518 1519 1523 1520 1516 1514 1516 1517 1517 1518 1520 1521 1521 1521 1520 1519 1518 1517 1514 1513 1511 1510 1510
1486 1490 1500 1500 1495 1496 1495 1498 1496 1504 1525 1525 1519 1508 1503 1503 1502 1506 1512 1517 1517 1519 1520 1521 1520 1517 1517 1517 1517 1517 1518 1519 1520 1520 1520 1519 1517 1516 1514 1512 1511 1510 1507 1506
1484 1493 1503 1502 1495 1494 1496 1503 1503 1500 1504 1518 1515 1505 1503 1503 1504 1507 1510 1515 1518 1519 1520 1520 1518 1514 1515 1516 1517 1518 1519 1520 1519 1519 1519 1516 1515 1514 1512 1510 1509 1508 1506 1505
1477 1490 1491 1498 1495 1492 1500 1502 1504 1500 1505 1509 1505 1501 1505 1507 1508 1510 1513 1515 1519 1521 1520 1519 1517 1517 1517 1516 1517 1519 1519 1519 1517 1515 1515 1513 1512 1510 1510 1508 1506 1505 1505 1504
1475 1489 1496 1499 1497 1497 1502 1503 1504 1503 1506 1506 1505 1508 1514 1514 1514 1516 1517 1520 1520 1523 1519 1520 1520 1520 1520 1519 1519 1519 1518 1517 1514 1511 1510 1508 1506 1507 1505 1503 1503 1502 1501 1500
1481 1496 1493 1504 1500 1499 1506 1507 1506 1507 1511 1510 1509 1515 1518 1519 1519 1519 1521 1520 1520 1521 1523 1522 1523 1522 1521 1520 1519 1517 1516 1513 1510 1507 1505 1504 1502 1499 1497 1497 1496 1495 1495 1495
1479 1488 1493 1510 1508 1505 1508 1510 1510 1511 1511 1509 1512 1512 1518 1519 1521 1522 1524 1523 1523 1524 1524 1524 1524 1521 1520 1519 1518 1516 1512 1509 1506 1502 1500 1498 1496 1495 1493 1490 1488 1487 1488 1489
1478 1488 1496 1506 1508 1521 1513 1509 1509 1510 1512 1510 1510 1515 1518 1521 1524 1524 1525 1525 1525 1524 1524 1524 1523 1521 1519 1517 1514 1511 1508 1505 1500 1497 1495 1492 1490 1488 1486 1484 1482 1481 1479 1478
1472 1481 1504 1505 1513 1517 1514 1509 1508 1507 1511 1511 1510 1516 1519 1521 1523 1525 1525 1525 1525 1524 1524 1523 1521 1518 1516 1513 1509 1506 1504 1500 1496 1493 1491 1488 1485 1481 1478 1476 1474 1473 1471 1469
1477 1477 1482 1510 1510 1513 1497 1500 1503 1505 1507 1507 1510 1514 1517 1520 1518 1522 1525 1524 1524 1523 1522 1520 1518 1516 1513 1511 1509 1506 1503 1499 1494 1490 1487 1484 1480 1476 1472 1468 1465 1462 1460 1459
1485 1489 1491 1500 1500 1497 1498 1500 1503 1514 1505 1504 1510 1514 1517 1518 1522 1523 1524 1524 1523 1521 1520 1518 1516 1515 1514 1512 1508 1503 1498 1494 1492 1488 1484 1479 1474 1468 1464 1461 1458 1455 1452 1450
1480 1486 1493 1502 1502 1504 1497 1502 1503 1500 1503 1506 1511 1514 1517 1519 1521 1523 1524 1524 1523 1522 1520 1519 1517 1515 1511 1506 1502 1498 1496 1493 1488 1482 1477 1471 1465 1459 1454 1450 1447 1446 1444 1441
1485 1484 1483 1489 1489 1495 1496 1498 1499 1501 1503 1508 1511 1513 1516 1519 1521 1521 1521 1521 1520 1519 1518 1516 1513 1510 1508 1504 1501 1497 1493 1487 1481 1476 1471 1466 1460 1454 1448 1443 1438 1436 1436 1434
1488 1490 1487 1492 1496 1496 1497 1498 1500 1503 1505 1509 1511 1513 1516 1517 1518 1519 1519 1519 1518 1517 1515 1514 1511 1509 1506 1502 1498 1493 1488 1482 1477 1472 1467 1461 1454 1447 1442 1438 1434 1430 1428 1427
1481 1486 1489 1495 1497 1497 1498 1499 1500 1503 1507 1509 1512 1514 1515 1517 1517 1518 1519 1519 1518 1517 1515 1513 1510 1507 1504 1500 1496 1491 1486 1480 1474 1469 1462 1456 1450 1444 1437 1432 1428 1424 1421 1421
1478 1479 1479 1477 1481 1486 1491 1496 1499 1503 1507 1510 1512 1513 1515 1517 1517 1518 1519 1519 1518 1517 1515 1513 1509 1506 1503 1499 1495 1490 1484 1477 1471 1464 1459 1454 1448 1441 1434 1427 1423 1420 1416 1416